Theta_e
313 313 313 318 322 323 328 328 331 336 329 322 325 327 321 321 324 324 326 327 329 326 326 328 328 327 329 335 335 337 336 338 339 337 344 341 338 340 340 341 337 333 332 332 333 332 331 328 326 323 320 319 324 330 332 336 336 335 337 337 336 336 334 332 332 334 333 333 333 333 333 332 332 332 333 333 332 332 331 331 331 331 331 331 331 331 331 331 331 330 330 331 330 327 328 330 331
312 312 313 320 324 323 332 331 328 333 328 320 319 323 322 320 323 322 325 326 327 326 329 329 328 327 329 334 334 341 342 337 339 340 340 339 339 341 340 340 337 334 332 332 333 333 331 328 327 323 319 317 323 332 334 335 336 335 336 337 337 336 335 333 332 332 333 333 333 332 332 331 332 332 333 333 333 332 332 331 330 331 331 331 331 331 331 331 330 330 329 329 329 328 328 330 331
311 313 317 323 328 324 330 331 326 325 322 320 318 322 323 320 322 322 325 326 327 329 331 329 329 328 327 335 336 342 343 336 338 338 338 339 341 341 340 340 337 334 331 332 333 333 332 329 327 323 320 318 322 331 334 334 336 335 335 337 337 336 335 334 333 333 333 333 332 332 331 331 331 331 333 333 333 333 332 331 330 330 330 331 331 331 330 330 330 330 330 328 328 329 330 330 330
310 315 320 323 333 331 328 330 330 322 318 323 318 319 325 323 324 324 326 327 331 332 330 329 330 327 328 338 336 338 339 337 338 338 338 340 341 341 341 340 338 333 331 331 332 333 332 329 326 323 321 319 320 326 331 334 336 335 335 336 337 336 335 335 334 333 332 332 333 332 330 331 331 331 333 332 332 332 332 332 331 331 331 331 331 331 330 330 331 331 330 327 328 329 330 330 330
313 319 320 322 332 333 326 327 331 323 319 326 319 320 327 325 325 325 327 329 333 332 329 330 328 324 329 335 334 337 338 337 337 337 338 339 341 341 341 340 336 334 333 331 331 333 332 329 325 323 321 319 320 324 329 333 334 334 334 335 336 336 335 335 334 333 332 333 333 332 331 330 330 332 333 332 331 331 331 332 331 331 332 332 331 330 330 330 330 330 330 328 328 329 329 330 329
317 321 322 322 328 327 326 325 328 324 323 328 322 323 327 325 325 326 328 328 330 329 329 329 326 327 334 334 334 338 337 336 337 336 338 339 341 341 341 339 337 337 337 333 330 332 332 329 325 323 321 320 320 322 327 331 333 333 333 334 335 335 335 334 334 333 333 333 331 330 330 330 330 331 331 331 330 330 331 332 331 330 330 330 330 329 328 328 328 329 330 327 328 329 328 329 329
318 325 327 326 326 324 326 325 327 326 321 322 323 325 326 325 326 326 328 326 326 326 327 328 327 332 334 334 337 338 335 335 337 337 338 339 340 340 340 339 339 340 339 335 330 332 332 329 326 323 323 321 320 320 324 328 331 333 333 333 335 335 335 334 334 333 333 332 329 327 328 329 330 329 329 329 330 330 331 331 329 328 328 328 329 329 329 329 328 328 329 327 327 328 328 328 328
319 326 330 327 328 326 326 326 328 328 317 317 322 324 325 324 325 325 326 326 325 325 326 325 327 332 330 334 341 338 336 336 336 337 338 339 340 340 340 340 340 339 340 336 331 332 332 330 326 323 324 322 321 320 322 324 328 332 332 333 334 335 334 334 335 333 332 330 328 327 327 329 330 329 328 329 330 330 331 331 329 328 327 328 330 330 329 329 328 327 327 327 327 328 327 327 328
319 325 329 326 330 326 323 326 327 325 317 318 321 323 324 323 324 324 324 325 325 325 327 325 325 328 329 337 340 335 337 337 336 337 338 339 339 340 340 340 340 339 340 335 330 332 332 331 327 324 324 323 322 321 321 321 326 332 333 333 334 334 334 335 334 333 331 329 329 329 328 329 329 329 328 329 330 331 331 330 330 329 329 330 329 329 329 329 328 327 327 327 327 327 327 326 327
323 325 328 327 331 324 321 325 323 320 317 318 321 324 323 321 323 323 324 324 324 325 326 325 326 328 332 339 339 336 337 336 337 337 337 338 339 340 340 340 339 340 339 333 330 332 333 332 329 325 324 324 323 321 321 321 323 328 331 332 332 333 334 334 333 332 330 330 330 329 329 329 329 329 328 328 328 329 330 329 330 330 329 329 328 329 329 329 328 327 326 326 326 326 326 325 327
330 326 326 325 325 321 322 323 321 319 318 318 319 321 321 321 322 322 323 321 323 325 324 323 325 331 336 340 340 337 336 336 337 337 337 337 337 339 339 340 339 339 338 332 329 331 333 332 330 327 325 324 323 322 321 321 322 323 324 326 329 331 332 332 331 330 330 330 330 329 329 329 328 328 328 329 328 329 330 329 329 328 328 328 328 328 328 328 328 327 327 325 325 326 325 325 327
333 330 327 327 326 325 328 324 320 319 317 319 319 319 322 322 321 321 322 321 324 325 323 323 321 329 337 340 340 336 335 337 337 337 337 336 337 339 339 339 339 339 338 332 329 330 332 333 332 330 327 326 324 323 322 322 321 320 320 322 325 327 327 328 328 328 329 328 328 328 328 327 326 327 328 329 330 329 329 328 327 327 327 327 328 327 327 327 327 328 327 324 324 325 326 326 326
332 333 325 326 333 330 328 323 321 321 318 320 320 320 322 323 322 321 321 322 325 324 324 324 320 330 338 338 338 335 336 336 337 337 336 336 336 339 339 338 339 339 338 333 329 328 330 333 332 331 330 328 326 324 323 322 322 321 320 320 321 322 321 322 323 324 324 324 326 326 326 325 325 326 328 329 330 329 328 327 327 326 326 326 326 326 326 326 327 327 325 324 325 325 326 327 326
329 331 323 327 335 327 324 320 320 321 317 319 320 320 322 322 322 320 321 322 323 322 322 321 322 335 340 337 339 337 336 336 337 337 335 337 336 338 339 338 339 338 338 335 330 327 328 331 332 331 331 330 329 327 324 323 323 322 321 320 319 319 318 318 320 321 321 322 324 324 324 324 325 324 327 329 329 328 328 327 327 326 324 324 326 326 326 327 326 326 324 324 325 326 326 326 326
324 330 326 328 331 325 327 323 322 324 318 319 320 320 322 320 321 320 320 321 321 319 318 318 319 328 335 338 342 336 335 336 337 337 336 337 336 338 339 339 339 338 339 337 333 327 327 329 331 330 331 331 331 329 327 324 323 324 323 321 319 319 318 318 319 320 321 321 322 322 322 323 324 323 325 327 328 327 328 327 326 325 322 323 325 324 326 326 326 325 324 325 325 326 326 326 326
325 329 326 326 328 326 329 325 322 324 320 320 319 320 322 318 320 319 317 320 320 317 319 320 319 327 334 339 341 334 334 337 337 337 337 337 336 337 338 339 339 338 339 338 336 331 328 328 328 330 331 331 331 331 329 327 325 324 324 323 321 319 319 318 318 319 319 320 320 320 319 321 323 323 322 324 326 326 326 326 324 323 321 322 323 322 324 324 324 324 324 325 325 326 326 326 325
326 325 325 326 330 328 328 324 321 323 321 321 319 320 322 318 319 316 315 319 318 319 325 325 325 334 340 338 335 334 336 336 337 337 336 336 336 335 337 338 338 339 339 338 337 335 333 330 329 330 330 331 332 332 331 329 327 325 324 324 323 321 320 319 318 318 319 318 318 317 316 318 321 322 321 321 322 323 325 325 324 322 319 319 320 319 320 321 323 324 324 325 325 325 325 325 325
326 328 326 326 331 328 328 325 322 323 321 319 319 319 321 319 318 316 316 318 317 320 325 328 333 336 336 335 334 335 336 336 336 336 336 336 336 335 336 337 338 338 338 338 338 337 337 335 333 331 331 332 332 332 332 331 329 327 326 325 324 323 322 320 319 319 319 318 319 320 319 320 321 322 321 321 321 320 321 323 323 321 319 318 319 318 317 319 322 324 324 324 324 324 324 325 325
327 330 324 331 336 324 320 321 320 322 319 319 319 319 320 320 318 316 317 317 317 318 319 327 339 338 336 335 335 335 335 335 335 335 336 336 336 335 335 336 337 337 337 338 338 338 338 337 337 334 332 334 335 334 334 332 330 329 328 326 325 324 324 323 321 320 319 320 323 324 325 324 324 323 321 320 320 319 318 320 321 321 320 318 318 318 318 320 322 323 323 322 323 322 323 323 324
326 326 324 336 334 319 317 316 319 320 319 319 318 318 319 319 318 316 318 318 317 317 319 327 338 339 339 335 334 335 334 334 334 335 335 335 336 336 335 336 336 336 335 337 337 338 338 337 338 337 333 335 336 336 336 334 331 330 330 328 326 325 325 324 323 321 320 322 326 327 327 325 325 325 323 319 319 319 317 318 319 319 320 318 318 318 318 320 321 321 321 322 323 322 322 322 322
322 320 325 334 324 318 318 315 318 319 319 319 318 319 319 317 316 317 318 317 317 316 319 324 333 337 339 336 334 334 334 334 334 334 334 335 336 335 335 335 336 336 334 336 336 336 337 337 338 337 336 336 337 337 337 336 333 331 330 330 329 327 326 325 325 323 321 324 328 328 327 326 325 326 325 321 319 319 316 316 317 317 318 318 318 318 318 319 319 319 321 322 324 324 324 323 322
319 319 323 325 319 319 317 316 317 316 318 318 318 319 318 316 315 317 317 318 318 316 316 319 328 336 337 335 334 333 334 334 333 333 333 334 335 335 336 335 336 336 335 335 336 336 336 336 337 337 337 338 337 337 337 336 335 333 331 332 331 330 328 326 326 325 323 325 329 328 327 327 326 326 325 321 319 321 319 316 317 318 318 318 319 319 318 319 319 319 321 322 323 324 324 324 323
320 320 321 319 319 319 316 317 317 316 318 318 318 317 316 316 315 316 316 318 318 316 316 315 323 333 336 334 334 334 333 333 333 333 333 333 334 335 335 335 336 336 335 334 336 336 335 336 337 337 338 338 338 337 337 336 336 334 333 333 332 332 330 328 327 326 325 325 328 328 327 328 327 325 324 320 319 323 322 318 319 321 321 319 319 320 320 319 319 320 322 323 322 323 323 323 324
319 319 319 317 318 318 316 316 316 317 318 317 317 316 316 317 316 316 315 317 316 316 318 314 319 331 335 334 334 333 333 333 333 333 333 333 333 334 335 336 336 336 336 334 335 336 336 336 337 337 338 338 338 337 337 336 335 335 334 334 334 333 331 329 328 327 327 326 327 328 328 329 327 325 323 319 321 325 324 321 322 324 324 322 320 320 322 321 320 321 322 323 322 323 323 322 323
318 318 318 316 315 316 315 316 317 317 317 316 317 317 317 316 316 315 315 317 315 317 322 319 321 331 335 335 335 333 332 333 333 334 333 333 334 334 334 335 335 335 336 335 334 336 336 336 336 337 337 338 338 337 337 336 336 336 335 335 335 334 332 330 328 328 328 327 327 328 328 328 325 325 324 322 324 326 325 323 323 324 325 324 321 320 321 322 321 321 322 322 323 323 322 320 319
317 317 318 317 315 314 314 316 316 316 316 316 318 317 316 315 314 316 317 316 315 320 328 326 326 332 335 335 334 332 332 333 333 334 334 334 334 334 333 334 334 334 334 335 335 335 336 336 336 336 337 338 338 337 337 336 336 336 336 335 335 334 333 331 329 328 329 328 327 327 328 327 325 326 326 325 325 326 325 324 324 324 324 324 322 320 320 320 320 320 321 322 322 322 320 319 318
316 317 318 317 315 314 315 315 314 316 316 316 318 316 315 315 314 317 318 316 317 323 327 327 328 330 332 333 332 331 331 332 333 334 334 334 334 334 334 334 334 334 334 334 334 335 335 336 336 336 336 337 337 337 337 336 336 336 336 335 335 334 333 332 330 329 329 329 328 327 328 327 327 327 327 326 326 325 325 325 325 324 324 324 322 321 321 318 316 318 320 321 321 321 320 320 320
316 317 317 315 315 315 314 315 315 316 315 315 318 316 314 316 316 318 318 316 318 323 323 324 328 329 329 331 331 329 330 332 333 333 334 334 335 334 334 335 335 334 334 334 334 334 335 335 336 336 336 337 337 337 337 337 336 336 336 336 336 334 334 333 331 330 329 330 329 328 328 327 327 327 327 327 327 326 325 325 325 324 324 323 322 321 321 318 315 316 320 320 320 320 320 320 320
317 316 316 315 314 315 315 315 315 315 315 315 316 315 315 317 317 318 317 315 317 321 321 321 324 325 327 329 330 329 329 331 332 333 334 335 335 335 335 335 335 335 335 334 334 334 334 334 334 335 336 336 336 336 336 337 336 336 335 335 336 335 334 333 332 330 329 330 330 328 328 328 327 327 327 327 327 326 325 325 324 324 323 322 321 321 320 318 316 317 319 320 320 320 320 320 320
316 315 317 316 314 315 317 315 315 316 315 315 314 314 318 319 317 316 316 315 315 319 320 320 319 320 322 325 328 328 327 329 331 332 334 335 335 336 336 335 335 336 336 335 335 335 334 334 334 334 335 336 336 336 336 336 336 336 335 335 335 335 335 334 333 332 330 330 330 329 327 328 327 327 327 327 327 327 326 325 325 324 323 321 321 320 320 319 317 317 318 319 320 320 319 319 320
316 315 316 319 317 318 318 315 316 316 314 315 313 314 319 320 318 315 316 316 315 317 317 317 318 317 318 321 324 327 325 326 330 332 333 334 335 336 336 336 336 336 337 336 336 336 335 335 334 334 335 336 336 336 336 335 336 336 336 335 335 335 335 334 333 332 331 330 330 329 328 327 327 327 327 327 327 326 326 326 325 325 323 321 321 321 320 320 319 318 316 316 316 317 318 318 318
314 314 316 317 317 320 319 315 316 316 315 314 313 314 317 318 317 315 315 316 316 317 316 315 317 317 317 318 321 325 325 324 327 331 332 333 335 335 336 336 336 336 336 337 336 336 336 335 335 334 334 335 335 336 336 336 335 336 336 336 335 335 335 334 334 333 332 331 330 329 329 328 327 327 327 327 327 326 326 326 325 325 323 322 322 322 322 322 322 321 318 316 314 314 315 316 316
313 316 320 319 316 318 318 315 316 316 315 313 312 315 317 316 315 313 314 315 315 316 316 315 316 317 317 316 319 324 326 325 326 328 330 332 333 334 335 336 336 336 335 337 337 336 336 336 335 335 334 335 335 335 336 336 335 335 336 336 335 335 335 335 334 333 332 331 330 329 329 328 327 327 327 327 327 326 326 326 326 325 324 323 323 322 323 323 323 323 322 319 316 315 315 315 315
313 315 320 321 317 316 317 317 316 316 314 313 313 315 317 316 314 314 315 315 316 316 316 316 315 316 317 317 320 324 327 328 326 325 329 331 332 333 333 334 336 336 335 335 337 337 337 336 336 336 335 334 335 336 336 336 336 335 336 336 336 336 335 335 335 334 333 331 331 330 329 328 327 327 327 327 327 326 326 326 326 325 325 324 324 323 323 323 324 324 324 321 318 316 316 316 316
315 315 315 318 316 314 317 317 316 316 315 314 314 313 317 317 315 315 315 314 315 317 316 316 315 315 316 317 320 323 325 327 325 324 328 330 331 333 333 333 335 336 336 336 336 337 337 336 336 336 335 334 334 334 335 336 336 336 336 336 336 336 336 335 335 334 333 332 332 331 330 328 328 328 327 327 327 327 326 326 326 326 325 324 324 324 323 322 323 323 324 322 319 317 316 316 316
318 317 315 318 317 313 317 318 315 315 315 316 316 313 314 315 314 315 315 315 315 316 316 314 315 316 315 316 318 320 322 323 321 322 328 330 331 332 333 334 334 334 336 336 335 336 336 336 336 336 335 335 334 333 335 336 336 335 335 335 335 336 336 335 335 335 334 333 332 332 331 330 329 328 327 327 327 327 327 327 326 326 325 324 323 323 323 323 323 323 323 323 321 319 317 317 316
315 316 314 317 318 314 316 317 315 315 315 316 316 315 315 314 315 314 314 315 316 315 315 314 314 315 315 315 316 318 319 318 316 319 325 328 330 331 332 333 333 333 334 335 335 335 335 335 336 336 335 335 334 334 334 335 335 335 335 335 335 335 335 335 335 334 334 334 333 332 331 331 330 329 328 327 327 328 328 328 327 326 325 324 323 324 324 324 323 323 322 322 322 320 319 319 318
314 316 313 315 319 317 315 315 314 314 314 316 316 314 314 314 314 314 314 315 315 315 314 314 314 314 315 316 317 317 316 314 314 316 319 324 328 329 331 332 332 332 332 334 334 334 334 334 335 336 335 335 335 334 334 333 333 334 335 335 334 334 334 334 334 334 334 334 333 332 331 331 331 330 329 328 327 328 328 328 328 327 326 325 324 324 323 323 323 323 322 322 322 320 320 320 319
317 318 315 313 318 318 314 315 315 314 314 317 318 315 315 315 314 314 314 315 315 314 313 314 314 315 315 316 318 318 317 317 319 316 314 319 324 327 329 331 331 331 331 332 332 332 332 333 335 335 335 335 335 334 334 333 331 331 333 334 334 333 333 333 333 333 333 333 333 333 332 331 331 330 330 329 328 327 327 328 328 328 327 326 325 324 324 323 323 323 323 322 322 320 319 319 319
319 319 318 316 318 319 316 314 314 314 313 315 317 316 316 314 314 316 315 314 314 313 314 314 314 316 316 317 318 319 318 319 322 319 314 315 320 324 327 330 331 331 331 332 332 332 332 333 334 334 335 335 334 334 333 332 331 330 331 332 332 333 333 332 332 332 333 333 332 333 332 332 331 330 329 328 329 328 328 328 327 326 326 327 326 326 325 324 324 324 324 323 321 320 319 319 319
319 321 325 323 318 320 320 316 316 315 315 317 314 314 320 319 314 314 313 313 313 314 314 313 314 316 315 317 318 317 319 318 320 322 318 314 316 321 324 327 330 331 331 332 332 332 332 333 333 333 334 334 334 334 333 332 332 331 331 331 332 332 332 331 331 332 332 332 332 332 332 331 331 330 329 328 328 328 329 328 326 326 326 327 326 326 326 326 325 325 324 323 322 321 321 320 320
316 321 327 325 320 322 321 319 321 319 317 319 313 313 329 335 324 316 313 312 313 312 315 314 314 315 315 317 317 317 318 318 318 321 320 315 315 319 322 325 328 330 331 332 332 332 333 333 333 333 333 334 333 333 333 332 332 332 332 332 331 331 331 330 330 331 331 332 331 331 331 331 330 330 330 329 328 327 328 328 327 327 327 327 327 326 327 326 325 324 324 323 322 322 322 320 319
313 318 324 324 325 326 322 321 324 322 317 317 315 314 323 330 327 323 319 316 314 312 313 315 313 314 315 315 315 316 317 320 320 320 319 315 313 316 319 322 326 327 329 330 331 332 332 333 333 334 333 333 333 333 333 332 332 332 332 331 331 330 330 330 330 330 330 330 331 330 330 330 330 330 329 329 329 329 330 329 327 326 327 327 327 326 326 326 325 325 324 323 323 323 322 320 319
316 321 325 326 326 327 326 324 324 325 319 318 322 319 317 320 323 324 321 317 318 316 314 316 315 314 318 317 318 319 320 324 326 326 324 317 312 313 316 319 323 325 326 327 328 330 331 332 333 333 334 334 334 333 333 333 332 332 331 331 330 330 330 330 330 330 330 330 330 331 331 330 331 330 330 329 329 330 330 329 328 326 327 327 327 326 326 326 326 325 325 324 324 322 321 320 320
321 323 327 328 327 330 331 328 325 323 319 321 325 318 316 325 329 327 321 316 318 320 318 317 317 316 318 318 318 320 321 324 328 332 328 316 312 313 315 317 320 322 324 325 326 327 328 329 330 331 333 333 334 334 333 333 332 332 331 331 330 330 330 329 329 330 330 330 330 330 330 330 331 330 330 330 330 330 329 329 328 327 327 327 327 327 326 326 326 326 325 324 324 322 321 320 319
322 323 326 328 329 331 329 330 330 320 315 326 331 321 315 322 330 326 317 315 319 320 320 317 318 320 318 317 319 322 324 324 327 329 321 313 314 315 314 315 316 317 319 320 322 324 325 326 327 329 330 331 333 333 333 332 332 332 331 331 330 330 330 330 330 330 331 331 331 331 331 331 331 331 331 331 330 330 329 328 327 327 326 326 326 326 326 326 326 326 325 324 323 322 321 320 319
322 324 324 323 327 332 333 336 334 319 320 336 336 325 315 315 327 327 316 319 322 317 318 317 320 325 323 322 324 325 327 326 328 329 319 312 315 315 314 314 315 315 315 315 316 318 321 324 325 326 327 329 330 332 333 332 332 332 331 331 330 330 330 330 330 331 331 331 331 331 331 330 330 330 330 330 330 329 328 328 326 325 325 325 325 326 326 326 326 326 325 324 323 322 322 321 321
325 326 322 317 322 334 336 334 327 319 328 337 327 319 316 315 324 326 318 320 320 316 319 321 322 326 324 325 325 325 329 329 331 333 324 316 315 314 313 313 313 313 313 314 314 314 315 319 323 325 326 327 328 330 331 332 332 331 331 331 331 330 330 330 330 330 330 330 330 330 330 329 329 329 329 329 329 329 328 328 327 326 326 326 326 326 327 326 325 325 324 323 323 323 322 322 321
325 321 318 319 323 325 326 325 323 323 327 324 316 316 319 318 319 318 317 319 318 316 319 324 327 326 325 325 324 325 328 328 328 329 328 325 318 314 313 312 311 312 312 312 313 313 313 316 320 324 325 326 327 328 330 331 331 331 330 330 331 330 330 330 330 329 328 328 329 329 328 328 328 328 329 329 329 329 329 329 329 328 327 326 326 325 325 325 325 324 323 322 322 321 322 321 319
318 314 316 324 324 316 316 321 321 322 322 316 313 316 319 319 318 318 318 316 315 317 320 328 332 329 328 326 325 327 328 328 329 328 332 331 317 311 313 312 310 311 311 311 311 312 312 314 317 322 324 326 326 327 328 330 330 330 330 330 330 330 330 329 329 328 328 328 328 328 327 328 328 328 329 329 328 328 329 329 328 327 325 325 324 324 323 322 323 323 321 320 320 319 319 319 318
317 318 317 321 324 320 321 324 324 323 320 315 312 316 322 320 316 319 320 315 315 317 320 324 323 323 323 321 321 325 326 329 332 330 332 327 315 313 315 312 311 312 312 312 311 310 311 312 314 317 321 324 326 327 327 328 329 329 329 329 329 329 329 329 328 328 328 328 328 327 327 328 328 328 327 326 326 326 326 326 326 325 325 325 324 323 322 321 321 321 321 319 318 318 317 317 317
320 321 318 319 324 330 329 325 330 328 319 317 316 319 326 320 313 317 318 316 316 315 317 318 317 319 319 318 320 325 327 329 330 330 331 324 315 316 317 314 314 315 314 313 311 311 311 311 311 313 316 320 323 325 326 327 328 328 328 328 328 328 328 328 327 327 327 327 326 326 326 326 326 325 325 324 324 323 323 323 323 323 322 322 321 321 320 320 320 319 320 319 318 317 317 316 315
320 319 319 322 323 329 325 316 319 319 316 321 319 318 325 319 314 319 314 314 317 315 317 319 320 323 321 322 327 330 331 330 330 331 330 322 316 317 318 317 317 316 315 315 313 313 313 312 312 313 315 318 321 323 324 325 326 327 327 326 326 326 326 326 326 326 326 325 325 325 324 324 323 322 321 321 321 321 321 321 320 320 320 319 318 318 317 317 316 316 316 317 316 316 316 315 315
320 319 320 320 316 321 325 318 316 315 317 326 319 316 323 318 317 325 315 313 319 317 318 319 319 322 322 325 331 333 332 329 328 330 326 318 314 316 318 318 318 317 316 317 317 317 316 315 315 315 316 319 321 322 323 323 324 325 325 325 324 325 325 325 325 325 325 324 324 323 322 322 321 320 320 320 320 320 320 320 320 319 318 317 316 315 315 314 314 314 315 315 314 314 314 314 314
317 320 318 319 318 320 322 319 320 318 316 324 321 317 321 317 319 325 314 314 323 318 317 317 317 320 321 325 331 330 328 325 324 327 326 318 313 314 316 317 317 317 317 318 319 319 319 318 317 317 318 320 321 321 322 322 323 323 323 323 323 324 324 324 324 324 324 323 321 321 321 321 321 320 320 320 320 319 319 319 319 318 316 315 315 315 315 314 314 314 313 313 313 313 312 311 311
316 317 314 317 322 324 322 317 320 324 319 322 322 318 322 324 323 323 315 314 321 318 317 317 316 319 321 325 330 327 325 326 326 327 326 319 312 313 315 316 317 318 318 319 319 320 320 320 319 319 319 319 320 320 321 321 322 322 322 322 322 322 323 323 323 322 322 320 319 319 320 320 319 319 319 319 319 319 318 317 316 314 313 313 312 312 312 312 312 312 312 312 311 311 310 309 309
315 316 314 315 317 319 323 320 323 329 324 323 320 318 331 336 324 320 316 313 316 319 320 320 319 320 321 325 328 326 325 327 327 325 325 316 310 312 315 316 317 317 318 319 320 320 320 320 320 319 319 318 318 318 319 320 320 320 320 320 320 320 321 321 320 320 319 319 318 318 318 318 318 318 318 318 318 316 315 313 311 311 310 310 310 309 309 309 309 309 309 309 309 309 309 309 308
315 315 314 315 315 316 319 318 322 324 323 328 324 319 333 339 323 317 315 313 318 321 321 323 323 324 327 327 326 324 323 325 324 323 322 313 308 310 312 314 315 316 317 318 318 319 319 319 319 317 317 316 315 315 316 317 316 316 317 318 318 318 318 318 318 318 318 318 318 318 317 317 317 316 315 314 313 311 310 309 308 308 308 307 307 306 306 306 306 306 306 306 306 306 306 306 305
Wind_Speed
12 13 12 11 12 11 10 2 2 3 2 0 3 1 1 2 4 5 5 4 4 2 2 4 4 5 4 7 9 8 5 1 2 3 3 5 17 25 21 21 22 21 21 19 17 15 13 13 13 13 13 14 15 15 18 17 14 14 14 15 16 17 17 17 18 19 19 19 19 18 18 18 18 18 19 19 20 20 20 20 20 20 20 20 20 21 21 21 20 20 19 17 17 21 23 23 25
13 13 10 10 9 4 3 2 3 3 4 1 3 2 4 3 5 7 7 5 4 2 3 6 7 7 8 10 9 7 6 6 2 3 4 15 22 22 23 23 22 21 21 20 18 16 14 14 13 13 13 14 16 16 18 18 15 13 14 15 16 17 17 17 18 18 19 18 18 18 18 18 17 17 18 19 19 19 19 19 20 20 20 20 20 20 20 20 20 20 19 18 18 20 22 23 24
13 11 10 10 5 1 1 3 2 1 4 1 3 3 1 5 6 7 7 7 6 6 6 6 6 5 6 7 5 5 2 4 5 6 8 21 20 21 26 21 21 21 20 20 18 16 15 14 13 14 13 14 16 17 19 18 15 12 13 14 15 16 16 16 17 17 18 18 18 18 18 18 15 15 17 17 18 18 19 19 20 19 19 19 19 19 19 20 20 19 19 20 20 21 23 23 24
11 8 9 9 4 2 3 3 2 2 1 3 2 3 2 6 8 8 7 7 7 7 4 4 4 1 6 9 5 5 4 1 4 5 7 18 20 25 25 18 21 21 20 19 18 17 15 14 14 14 13 14 15 16 18 18 15 12 12 14 15 16 16 16 16 16 17 17 18 17 17 17 15 14 15 15 16 17 18 19 19 18 18 19 19 19 19 19 19 18 18 19 20 21 22 23 23
8 6 5 4 2 1 2 1 1 3 2 3 3 1 4 7 8 9 6 6 7 6 3 3 2 1 5 5 3 4 5 5 5 5 10 19 25 28 23 19 22 21 19 18 18 17 15 14 14 14 13 13 14 16 16 16 14 11 12 13 14 15 15 15 16 16 17 17 16 16 16 16 16 15 14 14 14 15 17 18 18 18 18 18 18 18 18 18 18 18 18 19 20 21 22 22 22
7 6 3 1 1 1 2 0 1 1 5 4 5 3 6 7 9 10 7 5 5 4 3 3 3 3 4 2 3 4 4 6 8 9 16 25 27 26 23 22 23 21 19 17 18 17 16 15 14 14 13 13 14 15 15 15 14 12 12 13 14 14 14 15 17 17 16 15 15 15 15 16 16 15 14 14 13 14 16 17 17 17 17 17 17 16 17 17 17 17 17 18 20 21 22 22 22
6 6 2 2 2 0 3 2 2 2 4 3 7 7 7 7 8 10 8 5 5 3 3 2 5 7 3 1 3 4 3 10 12 15 22 28 28 26 24 24 24 23 18 17 18 18 17 14 14 14 13 14 14 14 14 15 15 13 12 13 13 14 14 15 16 15 14 13 14 14 14 16 16 14 14 15 14 14 16 16 16 16 16 15 16 16 16 16 16 16 16 17 20 20 20 20 21
3 2 1 3 1 2 2 2 3 3 1 2 7 8 10 9 8 9 7 5 2 1 1 1 6 7 2 3 3 5 7 15 16 22 28 29 30 26 25 26 26 23 18 18 19 18 17 14 14 14 13 14 13 13 13 14 15 14 13 13 13 14 15 15 14 12 12 12 13 14 14 16 16 14 14 16 16 15 15 15 15 15 15 15 15 16 15 15 15 15 15 16 18 18 18 18 19
2 1 1 2 1 1 1 2 2 3 2 2 6 7 9 9 8 8 6 5 4 3 2 2 5 6 1 5 4 3 10 18 23 27 29 30 29 27 27 27 26 23 19 18 20 19 18 15 14 14 13 13 13 13 12 13 15 15 13 12 13 14 14 14 12 11 10 11 13 13 14 15 15 15 14 14 14 14 14 13 14 15 15 15 14 15 14 14 14 14 14 15 17 17 16 16 17
2 1 1 1 2 1 3 3 2 2 2 2 6 7 8 7 8 8 8 6 5 4 4 3 7 6 5 4 3 2 10 22 27 25 28 30 26 26 27 26 24 22 19 20 21 19 18 16 14 14 13 13 13 12 12 12 14 16 14 12 13 13 13 12 11 10 10 11 12 13 13 14 14 15 14 13 12 12 12 12 13 13 13 13 13 14 14 14 13 13 14 15 17 16 15 14 16
2 2 1 1 2 2 3 2 3 2 2 2 4 5 7 8 8 7 8 6 4 5 3 2 7 6 6 4 0 5 17 24 26 26 28 28 22 25 27 24 22 20 19 20 21 19 19 16 14 14 13 13 12 12 12 12 13 13 12 13 13 12 12 11 10 10 11 12 12 13 13 13 14 14 14 13 11 11 11 11 11 12 12 13 13 13 13 12 12 13 13 15 17 16 15 15 16
2 3 3 2 2 4 4 3 5 3 2 1 2 2 4 8 8 7 8 6 5 6 2 2 5 5 6 2 1 9 19 20 24 27 28 24 20 25 26 23 21 18 17 19 20 20 19 17 15 14 13 13 12 12 12 11 11 11 11 12 13 13 12 11 11 10 10 11 12 13 13 13 14 14 13 12 12 11 11 11 11 12 12 12 12 11 11 12 12 12 12 14 16 16 16 15 15
2 1 3 1 4 3 3 4 5 4 1 2 3 3 3 7 7 8 9 7 7 6 3 5 4 6 5 1 1 7 14 19 24 27 27 22 19 24 25 22 20 18 16 18 20 19 19 18 16 15 14 13 12 11 11 11 11 10 10 10 11 11 11 11 11 10 10 10 11 12 11 12 14 13 12 12 12 11 10 10 10 10 10 10 10 11 11 12 11 11 11 13 15 15 15 14 14
1 1 1 2 1 1 3 4 4 5 3 4 3 2 3 4 4 6 9 8 5 5 3 3 5 6 4 2 1 3 11 21 25 26 26 20 19 25 24 22 20 18 16 16 18 19 19 18 16 15 14 13 12 12 11 11 11 11 10 10 10 9 10 10 10 10 10 10 10 10 9 11 13 12 12 11 11 10 9 8 8 8 8 10 11 11 12 12 11 10 11 13 13 13 13 13 13
1 0 2 2 2 1 2 4 5 5 3 4 4 3 4 2 4 6 6 8 2 4 1 3 4 4 4 6 4 7 15 26 27 26 25 18 20 25 23 22 20 17 17 15 16 18 18 18 16 15 15 14 13 12 12 11 11 10 11 10 9 9 9 10 9 9 10 9 9 9 9 10 12 12 12 11 10 9 8 7 7 7 8 11 12 11 12 11 11 10 12 13 12 12 12 11 12
2 2 3 2 2 1 3 3 5 4 3 4 4 4 7 3 4 5 1 6 3 2 3 3 2 3 5 6 8 16 23 29 28 25 23 17 21 25 22 22 20 18 17 14 15 17 17 17 17 16 15 15 13 13 12 12 11 10 11 11 10 10 10 10 9 8 9 9 8 9 8 10 11 11 11 11 10 8 7 7 6 7 8 10 11 11 11 11 11 11 13 13 12 11 10 10 10
3 3 2 3 2 2 3 4 5 5 4 4 4 4 8 2 3 2 1 5 6 4 5 3 4 5 2 3 16 27 27 30 29 25 22 19 21 23 22 23 23 21 18 15 15 16 16 16 17 16 16 15 14 13 13 12 12 11 11 11 11 10 10 10 9 9 8 8 8 9 9 9 10 10 10 10 9 8 7 6 6 6 7 8 8 10 10 11 11 12 13 13 11 10 9 8 8
3 2 1 3 2 3 4 5 6 6 6 6 6 5 9 6 2 1 3 7 6 7 6 3 7 8 8 14 26 30 28 30 29 26 23 20 21 21 20 23 25 24 22 19 17 16 15 15 16 17 16 15 15 13 13 13 12 12 11 11 11 10 10 10 10 9 9 9 9 9 9 9 9 9 8 9 9 8 7 6 6 6 6 6 6 7 9 10 11 11 11 12 11 10 8 7 6
3 2 1 4 4 3 3 4 7 6 8 8 7 6 7 7 5 3 3 5 6 7 4 4 8 8 11 18 26 28 28 29 27 25 23 21 21 21 20 21 24 24 24 22 20 19 17 15 15 16 16 16 15 14 14 14 14 13 12 11 11 11 10 10 10 10 10 10 9 9 9 7 7 7 5 6 7 7 7 6 5 5 5 5 5 7 8 10 10 11 11 11 11 10 9 8 6
2 2 1 5 5 2 6 2 5 7 10 10 7 6 6 6 5 3 4 7 6 7 4 4 7 7 8 12 20 25 25 25 24 23 22 21 21 22 22 22 23 25 25 24 23 22 19 18 16 16 17 17 16 15 15 15 15 14 13 12 12 11 10 10 10 10 11 10 10 9 8 7 5 4 3 4 4 5 7 7 6 5 5 5 5 6 8 9 10 11 10 10 10 10 9 9 7
1 3 4 6 3 0 5 6 1 8 11 11 8 6 5 5 4 4 6 7 4 5 8 8 10 12 11 10 17 22 22 22 21 20 21 20 20 21 22 22 23 24 25 24 23 23 22 20 18 17 18 19 17 16 16 16 16 15 14 13 12 12 11 11 10 11 11 11 11 9 10 9 5 4 4 4 3 3 6 7 7 5 5 5 5 5 7 8 9 10 9 9 8 7 6 6 5
1 3 6 6 2 2 3 5 4 4 9 9 9 7 6 4 4 5 8 7 5 6 8 11 13 15 16 15 17 19 19 20 19 19 21 21 21 21 21 21 21 22 25 26 24 24 23 21 19 19 20 21 19 17 16 16 16 16 15 14 13 12 12 12 11 11 13 14 11 10 12 11 8 8 7 6 5 4 3 5 7 5 4 4 5 6 6 7 9 9 8 8 8 6 4 3 2
2 5 3 4 1 2 2 4 5 1 9 8 8 6 6 6 3 5 8 6 6 6 8 11 15 19 21 20 18 16 16 19 19 21 23 24 23 23 24 23 23 24 26 28 26 24 24 23 21 20 22 23 21 18 16 17 17 17 16 15 14 13 12 13 12 11 14 16 12 11 13 13 11 10 8 8 8 6 3 3 6 6 4 3 4 6 6 6 7 8 7 6 7 7 5 4 5
4 5 1 3 1 3 2 2 4 3 8 5 6 6 7 8 4 4 5 5 5 4 5 11 17 22 23 18 16 16 18 21 22 23 25 26 26 26 27 26 26 26 27 28 28 26 25 25 24 22 23 23 22 20 18 18 17 17 16 15 15 13 13 14 14 13 14 16 14 12 12 12 12 11 8 9 10 7 5 4 6 6 5 3 3 5 5 5 6 7 7 6 5 6 6 7 8
5 5 2 1 1 1 1 3 5 6 4 1 7 7 4 6 4 3 5 5 5 3 6 11 15 17 17 15 15 15 17 20 21 22 23 25 25 24 25 28 28 27 27 28 28 28 27 27 26 25 25 24 23 21 19 18 18 17 17 17 16 15 15 14 14 15 15 16 16 14 12 12 13 12 9 10 11 9 8 7 6 6 6 5 6 7 6 5 7 7 6 6 6 6 8 9 10
5 5 3 2 0 2 1 4 4 4 2 3 8 5 1 2 2 2 6 8 6 5 10 11 13 13 13 13 14 14 15 18 21 22 23 24 25 23 23 26 29 29 29 28 28 29 29 28 28 27 27 26 24 23 22 20 19 20 20 18 17 17 16 15 15 16 15 15 17 17 14 12 12 12 10 10 11 11 10 9 8 8 9 9 9 9 8 7 8 9 9 9 9 10 10 9 9
3 4 4 4 3 2 0 2 1 2 2 3 7 5 0 2 1 2 5 8 7 8 10 10 13 12 12 11 12 15 16 20 25 24 22 22 24 26 25 25 30 31 30 30 30 30 29 29 28 28 28 28 27 25 24 23 22 21 21 20 19 19 18 17 17 16 16 15 15 17 16 14 12 11 11 10 10 12 13 12 12 12 12 12 11 10 10 10 9 11 12 10 10 11 9 9 8
3 6 4 2 3 0 1 3 2 1 2 2 7 4 1 4 1 6 6 8 9 10 10 10 11 11 11 11 10 12 16 21 26 23 22 23 25 28 29 27 29 31 32 32 32 30 30 30 30 29 30 29 28 28 27 25 24 23 22 22 22 21 20 19 19 18 18 17 16 17 18 16 15 14 13 13 11 12 14 15 15 15 15 14 13 12 12 11 9 10 11 9 10 10 10 10 10
4 5 3 1 3 2 2 2 2 2 1 3 5 2 3 1 6 8 5 7 8 10 10 9 9 9 9 10 9 9 14 19 21 22 25 28 28 29 31 30 28 30 33 32 31 32 31 31 31 31 31 31 30 29 28 27 26 25 24 24 24 23 23 22 21 20 19 19 18 19 19 18 18 17 14 14 14 13 14 15 16 16 15 15 14 14 13 11 9 10 11 11 12 12 11 11 11
3 2 4 1 3 3 5 2 2 3 0 2 3 1 5 6 10 7 5 8 8 8 8 8 7 8 8 8 8 9 13 17 19 24 28 29 29 31 32 33 31 29 31 33 33 33 33 32 32 32 31 32 31 29 29 29 27 26 25 25 25 25 25 24 23 22 20 20 21 20 20 20 20 20 15 13 15 16 15 15 16 16 15 15 15 14 13 11 11 11 13 14 14 14 14 13 13
3 2 1 2 2 4 6 2 4 3 1 1 4 3 5 7 9 7 7 9 10 9 8 7 7 6 7 7 8 8 11 18 23 27 29 30 31 32 32 34 34 30 28 32 34 33 33 33 33 33 32 31 31 30 30 30 29 27 26 26 26 25 25 25 24 24 22 21 22 22 21 21 21 22 18 14 14 16 16 16 15 15 15 15 15 14 13 12 11 12 13 14 15 16 16 16 16
1 4 3 1 3 4 6 2 5 5 1 1 4 3 5 7 8 4 6 9 9 10 8 7 7 7 7 6 7 8 9 17 24 27 29 30 32 32 33 33 35 35 30 29 33 33 33 33 33 34 34 32 31 31 31 30 29 28 27 26 26 25 25 25 24 24 24 22 22 22 21 20 21 24 21 16 15 16 17 17 16 15 15 15 16 15 14 12 12 12 13 14 15 16 15 16 17
2 3 4 3 4 3 4 3 3 4 2 1 2 2 3 5 5 2 4 8 8 8 7 7 7 8 8 7 7 7 8 11 16 22 28 30 31 33 34 34 34 37 35 31 31 33 34 34 34 34 35 35 32 31 30 30 29 28 27 26 26 26 25 25 23 23 24 23 23 22 22 21 21 23 23 20 17 17 17 18 17 16 16 17 17 16 15 14 13 13 13 14 14 14 14 15 15
3 1 2 3 4 3 2 3 4 3 3 3 4 3 4 5 4 4 3 5 8 7 8 8 7 8 8 7 7 7 8 8 10 19 27 30 32 33 34 34 34 35 37 36 32 32 33 34 34 34 35 35 35 33 30 29 29 28 27 26 26 26 25 25 23 23 25 25 25 24 23 22 22 22 23 23 20 18 18 18 18 18 18 17 18 18 17 15 14 13 13 13 14 14 14 14 15
4 3 3 2 3 4 5 3 3 5 3 4 5 4 8 9 5 5 6 3 7 8 8 7 7 8 7 8 8 8 9 9 11 20 28 31 32 33 34 34 34 34 35 37 36 33 32 33 33 34 34 34 36 35 32 29 27 28 28 26 25 26 26 26 24 25 25 25 26 26 24 23 23 23 22 23 22 20 19 19 19 19 19 19 19 19 18 17 16 15 15 14 14 15 15 15 15
8 7 6 5 4 4 5 4 4 6 5 3 6 6 9 10 8 6 7 4 6 8 7 6 7 7 7 7 8 9 9 10 15 23 29 31 32 33 33 34 34 35 35 36 37 35 33 33 32 33 34 33 34 35 34 32 28 27 28 28 27 28 28 28 27 27 26 26 27 27 26 25 24 24 23 22 21 20 20 20 21 21 21 21 20 20 20 20 19 18 17 15 15 16 16 15 14
7 7 6 6 6 3 3 2 3 3 5 5 7 7 8 8 9 8 7 5 6 8 7 7 8 7 7 8 8 10 10 10 16 24 29 31 33 33 33 34 34 34 35 35 36 37 36 35 34 34 34 34 35 36 36 36 34 31 29 30 31 30 30 30 29 28 27 27 27 28 28 27 26 25 25 23 22 22 22 21 22 23 23 22 22 22 22 21 20 19 17 16 16 17 17 17 15
4 6 6 6 5 4 2 1 3 2 3 5 4 4 9 9 9 8 5 6 8 10 9 9 10 9 8 8 9 10 8 7 10 18 24 28 30 32 33 33 34 34 35 36 37 38 37 36 37 36 35 35 36 37 37 37 38 37 35 34 32 31 31 31 30 30 29 27 27 28 28 28 27 26 26 25 23 23 24 24 24 24 24 24 23 23 23 22 20 19 19 18 18 19 19 18 16
3 3 5 5 5 3 1 2 1 2 2 3 2 2 9 10 8 8 6 7 8 10 11 11 11 10 9 8 9 9 8 6 8 12 18 25 29 31 32 33 35 36 36 37 38 38 38 37 38 37 37 37 37 37 37 37 37 38 37 35 33 31 29 30 30 29 28 27 27 28 28 28 27 27 26 25 25 24 24 26 25 23 25 25 25 24 23 23 22 21 20 20 19 19 19 18 17
3 3 5 4 4 4 1 2 1 2 1 1 2 2 6 7 6 8 9 9 7 8 12 11 10 11 12 11 10 10 10 9 9 9 12 20 26 29 31 33 35 35 35 36 37 37 38 38 39 39 39 39 38 38 38 37 35 35 35 34 33 31 29 28 27 27 28 28 27 27 28 28 28 28 27 26 27 26 25 25 24 23 24 24 25 25 25 25 23 22 21 21 20 19 19 19 19
2 3 5 4 5 4 3 3 2 3 3 1 3 5 6 5 6 9 8 6 7 7 10 11 10 11 10 10 10 11 11 10 10 10 10 14 21 27 31 34 35 35 35 37 38 38 38 40 40 40 40 40 40 39 38 37 34 33 33 31 29 29 28 26 26 28 29 29 29 28 28 27 26 27 27 26 25 25 24 24 23 23 22 22 24 25 26 26 23 21 20 20 21 21 21 21 20
4 3 5 6 7 5 6 6 5 4 4 3 3 2 6 5 5 9 6 4 8 8 8 11 12 10 8 9 10 10 10 10 10 11 11 14 20 26 29 32 33 34 36 38 39 40 39 40 40 40 40 40 40 40 39 37 36 35 34 32 30 29 29 30 32 34 33 32 31 29 27 25 25 25 25 25 24 24 24 23 22 22 22 21 22 23 25 26 24 21 20 21 22 23 23 23 21
3 4 4 7 9 9 9 7 4 3 2 3 3 4 5 6 5 8 6 5 9 7 8 12 11 9 9 9 10 9 9 9 8 9 10 13 18 21 24 28 32 34 37 39 39 40 39 38 39 39 39 40 40 39 39 38 37 36 36 36 35 34 33 34 36 34 33 32 30 29 27 25 24 23 24 24 24 25 26 24 21 21 22 21 21 23 25 25 23 21 20 21 23 23 24 25 24
4 4 5 10 10 9 9 7 4 3 3 3 3 4 2 5 6 8 5 5 9 7 8 11 9 9 10 10 10 10 10 8 8 8 8 11 16 20 23 28 33 35 37 37 37 37 38 38 38 38 38 39 39 39 39 40 39 38 38 38 37 36 36 35 34 32 30 29 28 27 26 24 23 22 23 23 24 25 25 25 23 22 23 23 22 24 23 22 21 21 21 21 23 23 24 26 26
5 4 7 8 8 8 7 6 4 2 3 2 5 1 2 5 7 6 4 3 7 8 9 10 9 10 10 10 10 9 8 7 7 7 7 9 14 19 22 27 31 33 33 34 35 36 36 37 37 37 37 37 38 38 39 40 40 40 39 38 37 36 36 34 31 30 28 27 26 25 24 23 23 22 22 22 23 23 23 23 23 23 24 24 23 23 21 20 21 21 21 21 22 23 24 25 25
4 4 7 5 5 5 4 5 4 3 2 4 7 2 2 5 6 5 2 3 7 8 8 8 7 8 9 9 7 5 4 3 4 5 5 6 9 12 15 19 24 28 29 30 32 32 33 34 34 35 37 36 36 37 39 39 40 39 38 38 37 35 34 31 28 27 27 27 26 25 24 24 23 22 22 22 22 21 21 21 20 20 20 20 20 21 21 22 23 23 21 21 22 23 24 24 25
6 6 7 7 6 5 4 3 4 4 2 6 7 3 3 3 6 4 4 5 6 7 6 6 5 3 3 4 4 5 4 3 2 2 3 3 5 6 8 12 16 20 23 25 27 29 29 30 31 33 35 36 36 35 37 38 39 39 38 37 36 34 32 30 27 26 26 26 26 25 23 22 21 20 20 20 19 19 18 18 17 17 18 18 19 21 23 23 23 21 19 20 22 23 23 23 24
7 5 6 5 4 4 4 5 4 2 4 6 5 2 3 3 6 5 5 6 6 6 6 6 5 2 3 4 5 6 5 4 4 4 4 3 4 6 7 9 12 14 17 19 22 25 26 27 28 30 31 33 34 34 35 36 38 38 37 35 34 33 32 30 28 27 26 26 26 24 22 19 18 17 17 17 18 19 18 18 20 21 21 21 21 21 21 20 19 19 19 20 21 22 23 23 24
5 5 6 5 2 3 2 2 1 2 5 4 3 2 2 5 7 7 9 11 8 6 6 7 7 5 5 5 6 6 5 5 5 5 5 4 5 7 8 10 11 13 14 16 18 20 22 24 25 26 28 29 31 32 32 34 35 36 35 32 31 31 30 29 28 27 26 25 25 25 23 20 18 16 16 15 16 17 18 18 19 18 17 16 16 16 16 16 17 18 20 20 21 21 22 22 22
5 7 6 5 3 3 1 3 1 3 4 3 3 2 2 4 6 9 13 14 10 7 7 7 8 8 8 7 6 6 5 5 5 5 5 5 6 9 11 12 13 13 13 14 16 18 20 22 22 24 25 25 27 28 29 30 31 32 31 29 28 27 27 27 26 25 23 22 21 22 21 20 19 17 15 13 12 12 12 13 13 12 13 13 13 13 14 15 16 17 18 18 18 19 19 19 19
4 6 6 6 5 4 4 4 3 3 3 2 2 2 3 3 4 7 10 11 7 4 4 4 5 5 4 4 4 5 5 5 5 5 5 5 7 10 11 11 12 12 12 13 15 17 18 20 21 21 22 22 23 24 25 25 25 26 26 25 24 24 25 25 25 23 20 18 17 17 17 17 17 15 13 11 9 8 8 9 10 11 12 12 12 13 12 12 14 15 15 15 16 16 17 17 18
3 3 5 4 5 5 4 3 5 5 2 1 2 3 5 4 6 8 6 6 4 1 2 1 3 4 1 2 5 5 5 5 5 4 4 5 7 10 10 11 12 11 11 12 13 15 16 18 19 19 20 20 20 20 21 22 22 22 22 22 21 21 21 22 22 21 19 17 15 15 14 15 15 14 13 12 10 9 9 9 9 10 10 10 12 13 12 11 12 13 13 14 14 14 15 15 17
1 3 4 5 4 7 5 2 1 4 3 2 2 3 5 3 6 9 6 4 4 4 4 4 6 5 3 6 6 5 5 5 5 5 5 5 7 9 10 11 12 11 11 11 12 13 14 16 17 17 17 17 17 18 19 20 20 20 20 20 19 19 18 18 19 18 18 16 15 14 13 13 13 12 11 11 10 10 9 8 8 8 9 9 10 12 12 11 11 11 11 12 12 13 13 15 16
5 4 6 3 3 4 4 2 1 3 2 3 2 4 5 2 2 6 4 4 7 7 7 6 5 4 5 7 6 5 6 5 4 4 5 5 7 9 10 11 11 11 12 11 11 11 12 14 16 16 17 17 17 17 18 19 19 19 19 19 18 17 17 17 16 16 16 16 14 12 10 10 9 7 7 7 8 8 8 9 8 8 8 8 7 8 8 9 9 9 9 10 11 12 13 15 16
3 4 4 4 3 2 2 3 2 2 3 4 3 4 3 3 5 4 2 6 8 8 7 6 6 5 6 6 5 5 5 4 4 5 4 4 6 9 10 11 11 11 12 12 12 11 12 13 15 16 17 17 17 17 18 17 17 18 19 18 17 16 15 15 15 15 14 15 14 12 10 9 8 8 9 9 9 8 9 9 9 8 8 7 7 7 8 8 9 9 9 10 11 11 13 16 17
2 1 2 2 2 4 3 3 4 3 4 3 3 2 3 6 6 5 7 9 8 7 6 6 7 7 7 6 5 5 5 6 5 6 5 4 6 9 12 13 13 14 13 13 13 13 13 14 15 17 17 17 17 17 17 17 17 17 17 17 17 16 16 16 15 15 13 12 13 13 11 9 9 9 9 9 9 9 8 8 8 8 8 7 7 7 8 8 8 9 10 11 11 11 13 15 15
2 4 5 3 1 3 2 2 3 4 4 3 2 2 5 6 5 8 11 10 8 7 7 7 8 7 7 6 6 6 6 5 5 5 5 5 7 10 13 14 14 15 14 14 14 14 14 14 15 16 17 17 18 17 17 17 17 17 17 17 16 16 16 16 14 14 12 11 12 12 12 11 10 9 9 9 9 8 8 7 6 5 4 4 3 3 4 5 6 7 8 9 10 12 13 14 14
4 6 8 7 4 5 4 3 2 2 3 4 4 3 7 7 4 7 9 8 7 8 8 8 7 6 6 5 6 6 5 5 4 5 5 6 9 11 13 14 15 15 15 15 15 15 15 15 14 15 16 16 17 17 16 14 14 14 15 16 15 14 14 14 14 14 13 13 13 13 12 11 9 8 7 7 6 5 4 2 1 1 1 1 2 2 3 3 3 3 4 5 7 8 10 11 12
Wind_Direction
319 315 313 318 320 330 322 26 70 317 87 334 258 146 225 159 124 117 95 81 68 40 80 93 75 61 88 113 121 106 50 332 190 156 181 153 149 159 164 157 152 149 145 141 139 134 130 122 110 103 97 102 109 110 109 105 97 93 93 100 100 99 100 97 93 91 91 87 85 83 82 81 80 77 76 78 78 77 77 76 76 76 75 75 74 74 75 75 76 78 78 82 91 93 92 91 89
325 320 317 324 320 338 304 96 81 323 53 346 276 163 187 121 93 123 123 107 107 127 93 79 65 61 99 124 124 91 35 350 79 118 113 125 135 149 156 155 151 151 148 143 141 136 131 123 114 107 101 103 108 112 110 104 98 94 95 100 102 102 102 96 94 94 92 88 86 86 85 84 81 81 81 80 79 78 77 78 78 76 76 75 75 75 75 76 76 77 78 80 88 94 94 92 90
332 332 333 339 331 75 347 38 88 1 38 228 265 273 161 91 108 127 126 118 121 112 83 70 55 60 93 92 66 68 73 347 78 92 109 129 134 145 151 152 151 152 148 145 142 137 133 126 119 111 107 108 110 117 116 108 102 97 97 101 106 106 104 100 97 94 93 92 89 88 86 82 80 84 85 81 82 81 80 81 80 78 77 76 76 76 76 76 75 77 77 80 87 93 95 92 89
335 346 342 351 10 27 41 44 148 138 326 216 218 297 61 109 125 113 118 120 115 97 81 78 56 15 81 91 91 78 120 97 100 111 121 138 142 147 150 150 152 151 148 147 144 139 134 129 122 115 111 111 112 119 121 112 106 105 101 101 108 109 108 106 100 97 96 93 89 89 87 81 79 82 85 82 81 83 86 86 84 81 80 79 78 77 77 77 77 78 77 82 90 95 95 92 89
334 357 334 351 63 1 77 93 136 113 252 199 148 239 120 124 122 111 117 111 103 99 110 111 80 318 68 89 126 101 127 115 140 147 127 140 144 148 151 149 150 149 149 148 146 142 136 133 124 117 115 114 114 116 120 114 110 111 105 101 108 110 111 109 104 100 94 92 90 90 89 84 81 83 83 81 78 79 87 89 86 82 80 80 79 77 78 78 80 81 79 86 94 97 96 91 88
344 3 341 2 156 216 97 254 324 317 249 172 128 178 149 132 126 117 112 92 64 81 121 119 118 96 68 27 55 96 165 142 153 157 138 143 147 151 152 146 147 150 151 150 151 145 137 136 127 121 118 117 117 116 118 118 114 113 110 104 108 110 111 110 106 102 96 95 96 95 94 89 86 86 84 83 81 79 84 86 84 82 79 78 77 77 78 79 82 84 82 94 101 98 96 91 87
359 0 3 58 322 347 107 203 236 254 263 147 135 162 151 139 133 117 116 101 30 38 83 91 125 101 69 127 70 24 165 157 154 153 146 146 150 152 150 145 147 154 155 152 153 146 140 137 131 126 122 121 120 118 118 122 120 116 116 108 107 110 112 109 106 106 103 102 98 97 97 93 89 87 83 84 82 79 81 79 78 80 81 79 78 79 79 80 81 85 86 100 107 99 95 91 87
16 7 28 92 1 351 113 220 238 204 263 82 134 153 148 145 135 121 128 123 87 144 72 33 106 97 11 79 95 10 101 146 151 149 148 148 152 152 151 148 149 156 156 154 154 147 143 140 136 132 126 125 123 121 120 124 124 118 116 111 108 110 111 108 106 108 108 105 100 99 98 96 94 90 84 81 80 78 79 76 76 79 83 83 81 81 80 80 79 84 88 103 111 103 96 91 89
62 108 11 99 142 304 287 273 251 204 261 77 118 142 147 143 133 125 122 114 131 149 186 191 90 105 112 58 97 43 96 136 144 145 149 150 151 151 151 151 153 157 157 156 155 150 146 143 140 136 131 128 126 126 122 123 125 121 120 117 114 111 111 110 110 113 111 106 101 100 99 100 97 93 90 86 88 88 87 85 83 83 86 85 84 83 82 82 80 81 86 101 111 106 99 93 93
50 70 55 114 118 250 291 290 222 191 252 154 124 149 152 140 129 122 119 131 153 148 197 167 86 112 133 83 101 118 123 138 142 144 152 152 149 150 150 152 158 158 155 156 157 153 148 147 144 140 135 131 129 128 125 124 126 127 126 124 123 119 117 117 119 118 111 105 102 100 100 102 101 100 100 102 106 100 95 93 90 89 89 88 87 87 86 86 83 83 87 99 107 104 100 97 99
39 332 94 101 83 181 249 248 203 204 253 150 110 163 157 140 125 114 119 131 139 133 187 95 100 126 107 95 281 141 139 142 145 149 155 154 149 152 152 154 160 159 155 157 160 157 151 150 147 143 138 135 133 130 129 127 129 129 126 122 124 125 125 123 122 120 113 109 106 104 104 105 109 110 109 111 110 100 96 96 95 95 95 93 92 92 91 90 88 87 88 98 105 102 101 102 100
69 311 62 122 172 198 210 166 192 209 282 122 123 222 145 127 119 122 125 125 130 120 173 148 128 138 97 88 246 146 145 147 150 153 156 153 148 152 155 155 159 160 157 158 162 160 155 153 152 148 141 138 135 133 132 130 131 130 126 123 123 125 125 123 123 125 123 120 115 114 112 111 118 120 117 117 113 106 104 103 101 100 99 98 97 96 95 96 94 92 92 98 103 103 104 102 97
113 263 61 181 192 180 169 142 180 168 233 214 179 231 104 110 126 146 136 125 139 128 200 204 125 99 96 87 155 149 153 155 154 157 156 150 149 153 155 155 156 159 156 159 164 163 160 158 158 154 145 143 140 137 134 133 134 132 131 130 128 125 122 121 123 125 125 126 125 125 121 116 123 127 126 124 119 116 114 110 107 103 103 103 101 99 98 98 98 98 99 102 104 106 107 104 98
128 200 113 234 230 152 153 134 181 160 193 229 188 193 85 100 128 137 131 123 146 161 206 207 113 93 100 116 142 184 167 159 158 159 157 152 152 152 152 154 154 155 152 158 166 167 165 164 164 160 152 149 147 144 140 138 138 137 135 136 137 133 124 121 122 122 121 125 128 130 126 121 127 134 137 134 128 127 125 119 114 107 105 106 103 103 103 100 101 101 104 107 107 108 110 108 103
155 217 111 250 325 328 207 160 177 154 176 208 187 158 95 68 99 88 118 131 170 226 140 67 96 102 145 160 190 204 171 161 160 160 160 156 152 150 149 150 153 153 151 155 165 170 170 170 169 166 161 157 156 153 149 145 143 143 140 140 144 142 136 129 127 125 122 124 128 130 129 129 131 136 143 147 144 141 136 126 117 107 108 110 108 108 108 106 109 107 109 112 111 111 112 112 108
125 98 55 287 274 276 240 173 139 131 195 200 188 140 100 22 60 83 143 139 126 319 50 43 24 91 154 186 182 175 165 160 160 162 164 158 151 150 147 149 153 154 156 157 163 172 176 176 174 172 169 165 165 161 158 155 150 148 145 146 148 147 144 140 137 133 128 127 130 132 132 136 138 138 143 152 154 154 146 130 118 109 112 114 115 115 114 117 117 112 113 116 115 114 114 113 110
65 80 41 290 245 212 231 183 154 157 191 193 199 153 123 78 20 94 41 96 107 70 55 27 26 68 119 171 155 157 157 158 159 163 165 158 153 153 149 152 155 155 162 166 167 173 177 179 179 178 175 172 172 170 168 164 161 157 152 152 151 151 148 147 149 142 135 131 128 127 130 136 141 145 146 151 156 158 156 144 131 117 116 116 116 120 119 119 117 112 114 116 116 114 114 114 112
68 98 171 260 233 204 223 192 182 156 153 178 199 172 137 143 124 136 70 75 101 88 64 47 48 50 78 120 140 149 152 156 160 163 164 158 156 160 155 157 161 160 164 170 174 177 179 179 180 183 178 175 176 177 178 174 172 167 161 160 157 157 154 153 154 151 143 134 128 118 121 132 137 146 152 157 161 162 163 157 145 125 119 120 114 116 115 116 114 114 117 117 113 110 109 108 111
125 137 181 237 220 228 264 178 167 143 147 163 180 170 146 160 154 132 122 128 130 107 71 63 76 66 85 117 136 147 153 156 163 166 167 163 162 167 165 163 169 170 168 171 176 181 187 184 182 187 181 177 180 180 182 182 180 178 172 169 165 165 165 162 159 157 150 141 137 122 120 131 134 138 146 159 167 171 170 163 157 141 132 132 127 124 119 118 119 120 123 121 116 110 104 96 98
166 145 206 246 234 289 338 346 172 154 143 146 172 171 147 174 153 129 152 152 154 148 152 111 113 130 121 128 141 149 156 160 167 170 171 171 168 172 174 172 175 179 177 175 178 183 191 193 187 190 185 180 186 184 182 185 186 186 183 178 176 176 176 173 170 165 157 148 142 135 141 153 154 151 155 166 168 183 184 178 176 165 159 154 146 140 133 128 127 127 126 122 120 114 107 95 90
167 153 198 252 249 305 325 324 279 149 142 148 163 135 133 177 144 143 146 141 198 203 187 170 160 158 149 149 151 154 162 167 172 174 174 175 174 178 182 181 179 183 182 179 183 185 190 195 192 190 188 186 192 190 184 187 188 189 190 188 186 186 187 184 178 175 164 153 147 153 168 174 189 202 208 211 184 185 190 191 193 184 182 180 164 154 148 142 136 132 129 123 118 114 113 103 97
178 219 205 250 260 148 273 317 332 142 133 137 143 132 149 155 135 163 146 149 218 220 202 178 162 161 159 159 159 160 167 175 179 177 178 179 180 183 186 188 184 185 186 186 187 188 190 195 195 190 190 192 197 196 189 190 191 192 192 189 189 190 196 194 187 183 168 158 159 168 177 186 204 217 223 225 206 182 175 196 198 184 178 182 169 159 153 154 149 140 135 131 128 131 136 127 134
213 264 201 274 295 137 276 332 328 155 129 136 149 154 144 122 151 180 151 176 213 214 209 176 163 164 160 156 158 164 171 181 186 183 183 183 184 186 187 189 188 189 192 193 191 190 193 195 197 194 192 196 199 200 193 191 194 195 193 189 190 189 195 198 193 192 176 166 172 173 180 198 214 217 218 216 208 187 172 190 180 169 158 162 176 167 157 163 168 155 145 147 151 155 159 172 202
194 265 296 321 31 131 261 345 345 87 125 154 146 137 139 136 158 175 165 203 210 217 199 159 158 157 154 155 164 172 176 184 190 189 188 188 189 188 189 191 191 192 195 196 194 193 195 195 197 196 195 197 199 200 194 190 194 197 196 195 195 190 192 198 194 196 189 178 180 181 189 212 222 216 206 203 205 195 200 201 174 183 187 185 224 202 179 188 202 184 164 177 188 181 188 201 212
201 239 238 305 32 178 228 48 28 62 89 94 108 116 150 156 140 162 193 199 195 172 114 126 141 146 154 164 171 174 178 185 191 192 192 195 196 192 190 193 194 194 195 196 196 197 198 197 197 198 198 199 199 200 197 194 194 196 199 199 200 194 192 197 192 195 199 191 187 188 196 213 219 214 201 196 200 201 213 210 187 205 213 215 235 225 211 217 230 218 196 207 221 219 221 220 220
219 212 178 141 87 244 137 56 44 59 26 67 104 105 81 190 142 193 205 187 189 135 111 122 134 148 164 170 174 176 179 184 189 192 194 196 200 200 196 194 195 197 198 199 199 200 201 200 199 201 201 201 200 199 199 199 197 198 200 202 203 199 196 197 193 195 201 201 194 192 198 208 213 213 209 203 201 205 214 209 199 209 219 227 234 229 226 232 237 229 218 218 225 232 235 230 227
208 169 128 132 155 237 164 94 106 77 21 77 112 127 47 312 130 234 229 187 170 123 124 139 142 159 172 171 180 181 182 187 189 190 191 194 198 203 205 199 195 197 200 200 201 202 202 201 201 203 204 204 204 201 200 201 200 201 202 204 206 203 202 199 197 200 204 208 204 196 199 207 212 214 215 216 214 212 213 210 207 210 218 228 233 233 238 245 243 228 222 225 229 235 239 241 244
135 133 97 97 128 10 77 107 181 94 53 121 109 116 322 5 102 221 221 180 160 137 145 156 154 167 173 175 184 184 190 192 189 187 189 195 197 201 207 206 196 196 199 200 201 202 203 202 202 204 205 206 206 203 202 202 202 204 205 205 207 206 206 203 201 204 207 212 212 205 202 203 208 214 218 224 230 223 216 214 215 217 221 227 230 234 242 248 241 224 224 232 237 238 239 242 248
132 132 113 295 40 15 222 137 194 130 121 210 121 87 298 281 227 225 188 163 159 145 157 168 167 172 174 178 182 188 196 192 188 190 195 197 198 199 205 208 202 198 200 202 202 203 204 204 203 205 206 207 208 206 204 205 206 208 208 208 209 209 209 209 207 207 211 213 216 213 206 202 204 209 215 224 233 232 224 221 223 226 226 228 232 235 241 243 236 225 226 232 237 240 241 242 244
168 145 124 182 20 309 246 187 146 120 79 256 132 179 266 241 239 236 172 154 147 151 172 178 178 177 179 182 181 191 195 189 189 196 199 199 200 201 203 207 207 203 202 202 203 203 204 205 203 205 206 207 208 208 207 207 208 209 211 212 212 213 213 215 215 214 219 219 219 218 211 206 204 205 208 218 227 228 227 228 230 232 231 231 234 237 239 239 236 232 232 235 239 243 244 244 244
174 201 147 128 147 261 277 203 147 134 271 16 116 196 258 254 261 255 193 164 151 169 191 189 189 188 186 187 185 193 194 192 195 200 201 200 201 202 204 206 207 208 204 201 202 203 203 205 204 203 205 207 207 209 209 207 209 210 212 214 215 217 218 219 220 219 223 226 224 222 219 215 208 206 209 214 220 223 225 229 233 236 233 231 234 238 240 241 241 240 240 242 243 245 247 246 247
160 188 245 246 165 253 307 276 168 154 222 93 126 207 264 262 269 260 179 165 163 179 196 197 197 198 195 196 192 194 199 198 200 201 202 202 202 203 205 206 206 209 208 202 201 202 203 205 204 203 204 206 207 209 210 208 209 211 214 216 217 219 220 221 223 221 224 228 225 224 227 226 215 209 210 215 217 221 226 230 235 238 234 234 237 240 242 244 247 249 249 249 250 250 252 253 254
279 163 203 212 175 233 302 295 230 168 150 197 192 211 258 270 272 275 156 159 167 180 201 205 201 204 200 199 198 196 199 200 202 203 203 204 204 205 206 207 207 208 209 206 202 202 204 205 206 206 205 206 207 208 209 208 209 212 214 217 219 221 222 223 224 223 224 226 226 227 230 230 224 214 211 216 218 221 228 234 238 239 236 237 239 243 244 247 253 257 255 253 255 256 259 263 265
262 147 173 223 178 176 221 284 268 166 139 204 214 218 243 272 280 262 236 169 165 184 207 213 207 207 205 199 198 198 197 199 203 202 202 203 205 207 208 208 208 208 209 209 207 205 205 206 206 207 208 208 208 207 207 208 209 212 214 217 220 222 225 227 226 225 226 227 227 230 232 230 228 222 217 217 218 221 226 231 237 238 238 239 241 244 246 248 253 258 259 256 255 257 259 265 271
189 172 174 245 188 180 198 233 229 166 153 200 193 234 251 264 280 256 257 205 177 203 214 215 213 208 208 202 197 198 200 206 207 201 202 204 204 206 208 209 209 208 209 210 210 209 207 206 207 208 208 208 209 209 208 207 208 210 214 216 220 223 225 227 227 225 226 229 229 230 233 233 230 228 227 223 221 224 226 228 232 234 237 239 240 242 242 245 249 252 256 256 253 255 259 263 267
176 182 180 190 189 210 212 231 234 166 152 202 195 221 243 253 266 259 257 226 196 225 234 229 226 217 212 205 202 202 203 213 211 204 203 204 205 206 207 209 209 210 210 210 209 210 208 206 206 207 208 208 208 208 209 208 206 207 210 213 217 221 224 225 227 228 227 229 229 230 231 236 236 234 233 231 230 233 233 233 233 233 236 237 237 239 242 247 249 250 253 256 255 253 257 260 262
179 184 193 194 182 216 239 248 281 132 137 223 217 224 250 252 254 256 251 224 214 232 238 237 232 225 216 206 207 206 208 219 213 208 207 206 206 206 207 207 207 208 209 208 207 208 209 208 205 206 207 207 206 206 207 208 208 206 206 210 215 219 221 223 225 227 229 229 228 229 231 234 238 237 235 234 237 239 237 236 235 234 235 236 238 242 247 250 252 254 255 256 256 253 253 256 258
192 187 197 208 195 210 255 235 279 48 127 245 253 239 258 259 254 261 244 207 221 222 218 229 228 227 224 209 211 213 215 222 208 209 210 206 205 205 205 205 204 204 205 206 207 207 209 208 207 207 206 206 206 207 207 208 210 209 208 209 212 216 219 221 223 226 228 230 229 231 233 234 235 236 235 236 239 239 240 240 238 238 238 238 240 245 248 249 251 253 252 251 252 251 252 254 252
167 166 177 207 210 185 313 326 320 42 128 263 331 238 257 265 260 262 241 213 223 215 208 216 216 220 225 214 216 219 221 220 203 208 209 205 205 204 203 202 203 204 204 205 207 207 207 207 208 207 206 206 207 209 209 210 212 211 211 212 212 214 219 223 227 229 230 231 232 233 235 235 235 236 236 239 239 238 242 243 241 243 244 241 241 243 245 246 248 250 250 251 252 251 252 252 249
140 127 151 199 199 156 214 283 339 38 111 178 36 339 275 272 271 264 242 226 230 218 214 219 211 211 216 211 212 213 213 216 210 211 206 202 203 202 201 201 202 203 203 204 205 205 205 206 207 207 207 207 208 210 212 214 214 212 213 215 216 216 220 225 229 232 232 232 234 234 234 234 235 236 237 239 238 238 242 242 241 244 246 244 243 243 245 246 248 250 251 251 251 250 250 252 251
226 158 149 175 184 164 166 163 111 16 0 60 69 359 302 262 256 257 249 240 246 230 217 227 228 221 220 217 217 215 212 210 208 211 207 199 200 201 201 201 201 201 202 203 203 204 205 206 208 208 207 208 208 210 212 213 211 210 210 213 217 218 220 223 224 225 227 229 232 233 233 234 235 236 236 236 238 240 242 242 244 246 246 247 245 245 248 250 249 251 253 253 252 252 254 256 254
261 219 174 165 164 138 112 119 93 48 336 304 103 31 293 292 269 250 259 268 250 236 217 227 234 230 227 227 226 223 223 219 211 210 204 197 199 201 203 202 201 201 203 205 206 207 207 207 208 208 208 208 209 210 210 209 207 206 205 205 207 209 212 216 218 219 220 223 228 230 232 234 235 235 234 235 238 239 237 239 247 249 247 247 246 247 249 249 248 250 255 255 255 257 259 257 254
236 243 174 138 130 120 127 136 105 108 226 287 97 145 255 316 310 261 270 265 250 242 225 230 231 226 221 223 227 223 225 227 223 222 209 200 199 198 201 203 202 204 206 207 208 208 208 208 207 208 209 209 209 210 209 208 206 205 205 205 205 205 207 213 217 218 220 223 227 229 230 231 232 234 233 234 237 237 235 238 246 250 248 246 246 247 247 248 251 256 262 262 262 263 258 254 254
214 236 138 124 124 133 146 139 116 161 187 337 23 123 208 293 282 271 286 277 275 272 241 238 231 226 224 222 223 217 216 215 211 218 213 205 203 198 200 203 204 207 209 209 208 209 209 209 209 208 209 210 209 209 209 208 207 206 207 207 208 208 211 215 216 218 221 224 226 227 229 230 231 233 234 234 235 235 236 239 241 245 247 247 247 247 248 252 257 261 264 265 265 263 257 254 256
225 204 137 133 134 140 142 119 102 104 113 313 305 112 168 269 273 291 319 268 273 271 247 242 234 228 229 225 224 222 222 215 202 209 212 207 205 206 208 208 208 210 211 211 212 212 213 213 212 211 211 211 211 210 210 210 209 209 208 208 210 212 215 218 218 217 218 220 221 224 228 230 230 232 234 235 233 234 237 238 239 243 247 250 251 252 252 254 257 259 262 265 265 263 260 258 258
203 146 105 81 84 96 96 106 101 63 81 243 259 205 168 270 281 296 319 245 248 255 252 250 248 244 239 237 235 221 209 195 190 204 209 200 197 205 212 214 215 214 214 216 215 215 215 214 214 214 213 213 213 212 211 211 211 211 211 210 211 213 214 216 216 214 214 215 219 224 228 230 230 229 230 232 232 234 236 235 236 242 246 250 254 255 254 254 255 256 260 267 268 265 264 262 263
133 102 78 59 40 42 46 62 90 79 292 251 246 222 165 262 283 250 226 228 219 231 261 268 273 279 231 221 199 167 158 170 202 236 236 211 192 195 199 205 211 213 215 217 217 216 215 214 214 214 215 215 214 213 212 212 212 212 213 212 212 211 211 209 207 207 209 212 216 220 223 225 224 223 223 224 226 229 232 233 235 240 243 244 247 250 252 254 255 256 262 271 271 268 269 270 272
109 97 103 88 19 15 21 1 44 115 251 260 262 252 159 213 264 246 244 262 233 213 233 238 230 204 161 164 165 170 177 197 216 239 251 239 206 204 201 195 195 198 204 208 212 214 213 212 213 213 214 214 214 214 213 213 214 214 214 214 212 211 210 207 206 208 210 210 212 212 213 215 214 214 216 219 223 226 231 236 236 236 237 239 243 249 254 260 264 266 270 273 272 271 272 273 272
87 115 122 107 48 28 25 318 351 210 242 263 285 280 197 229 252 257 268 273 256 225 214 203 194 192 193 189 191 198 200 204 210 218 227 227 213 217 221 214 205 199 199 200 203 207 208 210 211 211 211 212 212 214 214 214 215 215 215 215 214 213 212 213 214 216 217 215 215 214 216 217 215 215 217 221 225 228 232 238 239 239 243 248 254 261 264 265 266 267 268 270 271 272 272 273 275
125 143 137 129 120 93 196 245 271 244 246 264 284 272 251 272 266 247 247 253 248 226 220 204 182 182 193 197 199 203 210 215 215 210 206 209 211 216 223 225 220 213 209 208 206 205 206 208 209 209 209 208 209 211 213 213 214 215 216 216 216 215 215 216 217 217 216 214 215 217 219 219 219 219 219 218 221 226 229 234 238 245 254 258 261 265 262 258 260 264 268 273 273 271 273 276 282
170 170 142 149 159 148 187 203 189 212 246 285 290 264 191 201 260 237 233 256 259 212 214 209 188 193 190 199 210 210 226 235 220 209 210 214 208 207 215 219 215 214 215 217 215 210 209 208 209 209 207 205 206 208 210 211 212 213 214 215 215 215 216 216 215 213 210 208 208 208 207 207 207 207 207 209 212 216 220 225 231 238 245 250 255 260 263 262 264 266 272 279 277 274 275 277 282
229 156 117 164 180 144 149 175 171 166 137 261 240 240 209 205 277 273 251 270 282 249 292 276 226 253 254 228 242 237 238 231 204 197 208 211 192 188 194 196 198 203 207 209 207 205 207 208 208 209 207 205 204 206 207 209 210 209 209 210 211 213 214 214 214 213 212 209 203 198 196 197 202 206 211 219 225 228 228 232 240 245 247 252 256 258 262 266 267 269 276 282 282 282 282 283 288
175 125 166 207 165 118 118 172 156 114 137 234 209 249 286 315 296 287 270 251 267 279 277 248 240 255 233 220 236 241 230 210 193 186 188 189 174 170 174 176 180 184 185 189 191 194 199 201 202 202 202 200 200 201 203 205 206 205 204 205 206 207 208 207 207 206 205 204 203 206 210 213 219 223 223 225 229 232 235 238 243 247 251 257 259 258 259 263 266 271 278 283 287 290 288 290 292
135 160 195 187 109 103 113 135 33 68 177 264 229 218 274 323 275 308 318 237 253 256 243 250 265 259 226 227 239 238 221 195 175 166 172 179 164 161 165 165 169 172 172 174 175 181 188 191 193 192 188 188 188 191 195 197 199 198 197 198 197 198 197 195 194 193 197 202 204 206 210 212 217 218 209 206 211 216 221 224 226 232 244 256 260 261 264 265 267 273 282 288 292 293 290 287 286
147 178 180 124 129 181 137 146 162 145 202 270 282 240 248 205 220 293 288 224 239 243 238 254 267 247 228 236 241 230 205 169 149 146 159 173 156 150 153 155 159 161 161 162 163 170 175 179 181 180 179 180 179 181 185 187 189 189 190 191 189 187 187 187 186 186 192 199 196 188 187 191 191 192 193 195 200 203 206 214 224 235 247 254 256 259 263 267 270 275 281 285 288 291 289 288 287
28 94 144 97 129 170 172 162 153 150 190 241 289 300 257 228 215 216 224 226 223 219 221 231 240 234 225 224 214 196 181 170 167 159 153 152 140 136 140 145 148 151 152 153 157 162 163 165 170 173 174 175 175 178 178 178 179 180 183 187 188 186 187 188 191 191 190 194 193 186 187 194 190 189 195 200 207 213 219 228 236 243 249 250 255 260 266 272 275 275 276 278 282 286 288 289 290
124 152 176 185 105 123 152 173 140 133 156 193 226 267 264 251 212 200 220 230 215 200 199 213 229 230 221 213 194 182 175 172 168 153 140 129 125 127 132 138 142 147 149 148 151 155 156 160 169 175 177 177 178 178 178 181 183 182 184 187 190 193 194 193 193 191 185 182 185 183 187 197 198 199 207 214 223 229 232 239 242 247 256 261 272 285 294 296 291 284 280 281 284 284 283 283 284
165 177 182 180 158 127 152 210 211 127 143 169 175 228 265 256 208 205 222 222 210 199 191 203 223 225 217 201 185 180 167 159 147 135 136 132 131 132 134 137 140 144 147 146 144 146 151 155 161 167 171 174 175 172 172 178 180 182 186 187 187 187 183 180 179 177 173 172 175 179 186 196 200 205 213 218 222 221 215 211 184 133 81 58 39 26 10 353 347 344 329 309 298 289 285 286 292